Probability
0 0 0 0 0 0 0 0 0 0 0 0 0 0 0 0 0 0 0 0 0 0 0 0 0 0 0 0 0 0 0 0 0 0 0 0 0 0 0 0 0 0 0 0
0 0 0 0 0 0 0 0 0 0 0 0 0 0 0 0 0 0 0 0 0 0 0 0 0 0 0 0 0 0 0 0 0 0 0 0 0 0 0 0 0 0 0 0
0 0 0 0 0 0 0 0 0 0 0 0 0 0 0 0 0 0 0 0 0 0 0 0 0 0 0 0 0 0 0 0 0 0 0 0 0 0 0 0 0 0 0 0
0 0 0 0 0 0 0 0 0 0 0 0 0 0 0 0 0 0 0 0 0 0 0 0 0 0 0 0 0 0 0 0 0 0 0 0 0 0 0 0 0 0 0 0
0 0 0 0 0 0 0 0 0 0 0 0 0 0 0 0 0 0 0 0 0 0 0 0 0 0 0 0 0 0 0 0 0 0 0 0 0 0 0 0 0 0 0 0
0 0 0 0 0 0 0 0 0 0 0 0 0 0 0 0 0 0 0 0 0 0 0 0 0 0 0 0 0 0 0 0 0 0 0 0 0 0 0 0 0 0 0 0
0 0 0 0 0 0 0 0 0 0 0 0 0 0 0 0 0 0 0 0 0 0 0 0 0 0 0 0 0 0 0 0 0 0 0 0 0 0 0 0 0 0 0 0
0 0 0 0 0 0 0 0 0 0 0 0 0 0 0 0 0 0 0 0 0 0 0 0 0 0 0 0 0 0 0 0 0 0 0 0 0 0 0 0 0 0 0 0
0 0 0 0 0 0 0 0 0 0 0 0 0 0 0 0 0 0 0 0 0 0 0 0 0 0 0 0 0 0 0 0 0 0 0 0 0 0 0 0 0 0 0 0
0 0 0 0 0 0 0 0 0 0 0 0 0 0 0 0 0 0 0 0 0 0 0 0 0 0 0 0 0 0 0 0 0 0 0 0 0 0 0 0 0 0 0 0
0 0 0 0 0 0 0 0 0 0 0 0 0 0 0 0 0 0 0 0 0 0 0 0 0 0 0 0 0 0 0 0 0 0 0 0 0 0 0 0 0 0 0 0
0 0 0 0 0 0 0 0 0 0 0 0 0 0 0 0 0 0 0 0 0 0 0 0 0 0 0 0 0 0 0 0 0 0 0 0 0 0 0 0 0 0 0 0
0 0 0 0 0 0 0 0 0 0 0 0 0 0 0 0 0 0 0 0 0 0 0 0 0 0 0 0 0 0 0 0 0 0 0 0 0 0 0 0 0 0 0 0
0 0 0 0 0 0 0 0 0 0 0 0 0 0 0 0 0 0 0 0 0 0 0 0 0 0 0 0 0 0 0 0 0 0 0 0 0 0 0 0 0 0 0 0
0 0 0 0 0 0 0 0 0 0 0 0 0 0 0 0 0 0 0 0 0 0 0 0 0 0 0 0 0 0 0 0 0 0 0 0 0 0 0 0 0 0 0 0
0 0 0 0 0 0 0 0 0 0 0 0 0 0 0 0 0 0 0 0 0 0 0 0 0 0 0 0 0 0 0 0 0 0 0 0 0 0 0 0 0 0 0 0
0 0 0 0 0 0 0 0 0 0 0 0 0 0 0 0 0 0 0 0 0 0 0 0 0 0 0 0 0 0 0 0 0 0 0 0 0 0 0 0 0 0 0 0
0 0 0 0 0 0 0 0 0 0 0 0 0 0 0 0 0 0 0 0 0 0 0 0 0 0 0 0 0 0 0 0 0 0 0 0 0 0 0 0 0 0 0 0
0 0 0 0 0 0 0 0 0 0 0 0 0 0 0 0 0 0 0 0 0 0 0 0 0 0 0 0 0 0 0 0 0 0 0 0 0 0 0 0 0 0 0 0
0 0 0 0 0 0 0 0 0 0 0 0 0 0 0 0 0 0 0 0 0 0 0 0 0 0 0 0 0 0 0 0 0 0 0 0 0 0 0 0 0 0 0 0
0 0 0 0 0 0 0 0 0 0 0 0 0 0 0 0 0 0 0 0 0 0 0 0 0 0 0 0 0 0 0 0 0 0 0 0 0 0 0 0 0 0 0 0
0 0 0 0 0 0 0 0 0 0 0 0 0 0 0 0 0 0 0 0 0 0 0 0 0 0 0 0 0 0 0 0 0 0 0 0 0 0 0 0 0 0 0 0
0 0 0 0 0 0 0 0 0 0 0 0 0 0 0 0 0 0 0 0 0 0 0 0 0 0 0 0 0 0 0 0 0 0 0 0 0 0 0 0 0 0 0 0
0 0 0 0 0 0 0 0 0 0 0 0 0 0 0 0 0 0 0 0 0 0 0 0 0 0 0 0 0 0 0 0 0 0 0 0 0 0 0 0 0 0 0 0
0 0 0 0 0 0 0 0 0 0 0 0 0 0 0 0 0 0 0 0 0 0 0 0 0 0 0 0 0 0 0 0 0 0 0 0 0 0 0 0 0 0 0 0
0 0 0 0 0 0 0 0 0 0 0 0 0 0 0 0 0 0 0 0 0 0 0 0 0 0 0 0 0 0 0 0 0 0 0 0 0 0 0 0 0 0 0 0
0 0 0 0 0 0 0 0 0 0 0 0 0 0 0 0 0 0 0 0 0 0 0 0 0 0 0 0 0 0 0 0 0 0 0 0 0 0 0 0 0 0 0 0
Height
5806 5809 5812 5815 5818 5821 5824 5828 5831 5835 5837 5840 5842 5844 5847 5849 5851 5853 5855 5857 5859 5861 5863 5865 5867 5868 5869 5870 5870 5871 5871 5871 5870 5870 5869 5868 5867 5866 5864 5863 5861 5859 5857 5855
5805 5807 5810 5813 5816 5819 5822 5825 5828 5831 5835 5837 5839 5842 5844 5846 5848 5851 5853 5855 5857 5859 5861 5863 5864 5865 5866 5867 5868 5868 5868 5868 5868 5867 5866 5865 5864 5863 5861 5860 5858 5856 5854 5852
5803 5805 5808 5811 5814 5817 5820 5823 5826 5829 5833 5834 5837 5839 5841 5844 5846 5848 5850 5852 5854 5856 5858 5860 5861 5862 5863 5864 5865 5865 5865 5865 5864 5864 5863 5862 5861 5859 5858 5856 5854 5852 5850 5848
5801 5804 5806 5812 5812 5815 5818 5821 5823 5826 5829 5831 5833 5836 5838 5840 5843 5845 5847 5849 5851 5853 5855 5856 5858 5859 5860 5861 5861 5861 5861 5861 5860 5860 5859 5858 5857 5855 5854 5852 5850 5848 5846 5844
5799 5801 5804 5808 5810 5812 5815 5818 5820 5822 5825 5827 5829 5832 5835 5837 5839 5842 5844 5846 5848 5850 5851 5853 5854 5855 5856 5857 5857 5857 5857 5857 5856 5855 5854 5853 5852 5850 5849 5847 5845 5843 5840 5838
5796 5799 5802 5806 5807 5809 5812 5815 5817 5819 5821 5823 5826 5829 5832 5833 5836 5838 5840 5842 5844 5846 5848 5849 5850 5851 5852 5852 5852 5852 5852 5852 5851 5850 5849 5848 5846 5845 5843 5841 5839 5837 5834 5831
5793 5795 5799 5802 5804 5806 5810 5814 5814 5815 5817 5820 5823 5826 5828 5829 5832 5834 5836 5838 5840 5842 5843 5845 5846 5846 5847 5847 5847 5847 5847 5846 5845 5844 5843 5842 5840 5838 5836 5834 5832 5830 5827 5824
5790 5792 5798 5799 5800 5803 5806 5807 5809 5811 5814 5816 5819 5821 5823 5826 5828 5830 5832 5834 5836 5837 5839 5840 5841 5841 5842 5842 5842 5842 5841 5840 5839 5838 5836 5835 5833 5831 5829 5827 5824 5822 5819 5816
5787 5791 5793 5795 5797 5799 5801 5803 5805 5807 5810 5812 5815 5817 5819 5821 5824 5826 5828 5829 5831 5832 5833 5834 5835 5836 5836 5836 5836 5835 5834 5833 5832 5831 5829 5827 5825 5823 5821 5818 5816 5813 5810 5807
5781 5785 5788 5790 5792 5794 5796 5799 5801 5803 5806 5809 5811 5813 5815 5817 5819 5821 5823 5824 5825 5826 5827 5828 5829 5829 5829 5829 5829 5828 5827 5826 5824 5823 5821 5819 5816 5814 5812 5809 5806 5803 5800 5797
5776 5780 5782 5785 5787 5790 5792 5794 5796 5799 5801 5804 5806 5808 5810 5812 5814 5815 5817 5818 5819 5820 5821 5822 5822 5822 5822 5822 5821 5820 5819 5817 5816 5814 5812 5810 5807 5804 5802 5799 5796 5793 5789 5785
5771 5774 5776 5779 5781 5784 5786 5789 5791 5793 5796 5798 5800 5802 5804 5806 5808 5809 5811 5812 5813 5813 5814 5814 5814 5814 5814 5813 5812 5811 5810 5808 5806 5804 5802 5800 5797 5794 5791 5788 5784 5781 5777 5773
5764 5767 5770 5773 5775 5778 5780 5783 5785 5787 5790 5792 5794 5796 5798 5799 5801 5802 5804 5804 5805 5806 5806 5806 5806 5806 5805 5804 5803 5802 5800 5798 5796 5794 5792 5789 5786 5783 5780 5777 5772 5768 5764 5760
5756 5759 5763 5766 5768 5770 5773 5776 5778 5780 5783 5785 5787 5788 5790 5792 5793 5794 5795 5796 5797 5797 5798 5798 5797 5796 5795 5794 5793 5792 5790 5788 5785 5783 5780 5777 5774 5771 5768 5764 5761 5756 5751 5746
5748 5751 5754 5757 5760 5763 5765 5768 5770 5773 5775 5777 5779 5780 5782 5783 5785 5786 5786 5787 5788 5788 5788 5788 5787 5786 5785 5784 5783 5781 5779 5776 5774 5771 5768 5765 5762 5758 5755 5751 5747 5743 5738 5733
5738 5741 5744 5748 5751 5754 5757 5759 5762 5764 5766 5768 5770 5771 5773 5774 5775 5776 5777 5777 5778 5778 5777 5777 5776 5775 5774 5773 5771 5769 5767 5764 5761 5758 5755 5752 5748 5745 5741 5737 5733 5728 5723 5717
5728 5731 5735 5738 5741 5744 5747 5749 5752 5754 5756 5758 5760 5761 5762 5764 5765 5765 5766 5766 5766 5766 5766 5766 5765 5763 5762 5760 5758 5756 5754 5751 5748 5745 5742 5738 5734 5731 5727 5722 5718 5713 5707 5701
5718 5721 5724 5727 5730 5733 5736 5738 5741 5743 5745 5747 5748 5750 5751 5752 5753 5754 5754 5754 5755 5754 5754 5753 5752 5750 5749 5747 5745 5743 5740 5738 5734 5731 5728 5724 5720 5716 5712 5707 5702 5697 5691 5685
5707 5710 5713 5716 5719 5721 5724 5727 5729 5731 5733 5735 5737 5738 5739 5740 5741 5741 5742 5742 5742 5741 5741 5739 5738 5737 5735 5733 5731 5729 5726 5723 5720 5717 5713 5709 5705 5701 5696 5691 5685 5679 5673 5667
5695 5698 5701 5704 5707 5710 5713 5715 5717 5719 5721 5723 5725 5726 5727 5728 5728 5729 5729 5729 5729 5728 5727 5726 5725 5723 5721 5719 5717 5714 5712 5709 5705 5702 5698 5694 5689 5684 5679 5674 5668 5662 5655 5649
5683 5686 5689 5692 5695 5698 5700 5703 5705 5707 5709 5710 5712 5713 5714 5715 5715 5716 5716 5716 5716 5714 5713 5712 5710 5709 5707 5705 5702 5700 5697 5693 5690 5686 5682 5677 5672 5667 5662 5656 5650 5644 5637 5630
5671 5674 5677 5680 5682 5685 5688 5690 5692 5694 5696 5697 5699 5700 5701 5702 5702 5702 5702 5702 5701 5700 5699 5697 5696 5694 5692 5690 5687 5684 5681 5677 5673 5669 5665 5660 5655 5650 5644 5638 5631 5625 5618 5611
5658 5661 5664 5667 5670 5672 5675 5677 5679 5681 5682 5684 5685 5686 5687 5687 5688 5688 5688 5687 5686 5685 5684 5683 5681 5679 5676 5674 5671 5668 5664 5661 5656 5652 5647 5642 5636 5631 5625 5619 5612 5606 5599 5592
5646 5649 5652 5655 5657 5659 5662 5664 5666 5667 5669 5670 5671 5672 5673 5673 5674 5674 5673 5673 5672 5670 5669 5667 5665 5663 5660 5657 5654 5651 5647 5643 5639 5634 5629 5623 5618 5612 5606 5600 5593 5586 5579 5572
5634 5636 5639 5642 5644 5646 5649 5650 5652 5654 5655 5656 5657 5658 5659 5659 5659 5659 5658 5657 5656 5655 5653 5651 5649 5647 5644 5641 5637 5634 5629 5625 5620 5615 5610 5605 5599 5593 5587 5580 5573 5567 5560 5553
5621 5624 5626 5629 5631 5633 5635 5637 5639 5640 5641 5642 5643 5644 5644 5644 5644 5643 5643 5642 5641 5639 5637 5635 5632 5630 5627 5623 5620 5616 5611 5606 5602 5597 5591 5585 5580 5573 5567 5560 5554 5547 5540 5533
5607 5610 5613 5615 5617 5619 5621 5623 5625 5626 5627 5628 5629 5629 5629 5629 5629 5628 5627 5626 5624 5623 5621 5618 5615 5612 5609 5605 5601 5597 5592 5588 5583 5578 5572 5566 5560 5554 5547 5541 5534 5528 5521 5514
Wind_Speed
15 17 18 17 17 18 17 16 15 14 14 14 13 13 13 13 13 13 12 12 12 12 11 11 10 9 9 8 8 7 7 7 8 9 10 11 12 12 13 14 15 15 16 16
16 18 18 18 18 17 16 15 15 15 15 15 14 15 14 14 13 13 13 13 13 12 12 11 11 10 10 9 9 9 9 10 10 11 12 13 14 15 16 16 17 17 17 18
16 17 19 19 17 17 17 16 16 16 15 16 15 16 16 16 15 15 14 14 13 13 12 12 12 11 11 11 11 11 11 12 12 13 14 15 16 17 18 19 19 19 20 20
16 17 19 16 18 18 18 17 17 17 17 16 17 18 18 17 16 16 16 15 14 14 13 13 13 12 12 12 12 13 13 14 14 15 16 17 18 19 20 21 21 22 23 23
18 18 16 17 17 18 18 17 17 17 17 18 19 19 18 17 17 17 17 15 15 14 14 14 14 14 14 14 14 14 15 16 17 18 19 19 20 21 22 22 23 24 25 26
20 19 17 16 17 18 18 16 16 16 17 18 18 18 17 18 18 17 16 16 16 15 15 15 15 15 15 15 16 16 17 18 19 20 21 22 22 23 24 25 26 27 28 29
20 18 16 17 18 18 17 14 17 17 18 18 18 18 19 19 18 17 17 17 16 16 16 16 16 16 17 17 18 19 20 20 21 23 23 24 25 26 27 27 28 30 31 32
22 20 16 17 19 19 17 18 18 18 19 19 19 20 20 19 18 18 18 18 18 17 17 17 18 18 18 19 20 21 22 23 24 25 26 27 27 28 29 30 31 32 33 34
23 20 18 19 20 20 19 19 19 19 20 20 20 20 20 19 19 19 19 19 19 19 19 19 19 20 21 21 22 23 24 25 26 28 28 29 30 31 32 33 34 35 36 37
24 21 21 21 21 21 21 21 21 21 21 21 21 21 21 20 20 20 20 20 20 20 21 21 22 22 23 24 25 26 27 28 29 30 31 32 33 34 35 36 37 38 39 40
24 22 22 22 23 22 22 22 22 22 22 22 22 22 22 21 21 21 21 22 22 22 23 23 24 25 26 27 28 29 30 31 32 33 34 35 36 37 38 39 40 41 42 43
26 25 26 25 25 25 25 25 25 24 24 24 24 24 24 23 24 24 24 24 24 25 25 26 26 27 28 29 30 31 33 34 35 36 36 37 38 40 41 42 43 44 45 46
28 28 29 28 28 28 28 28 27 27 27 27 27 27 26 26 26 26 26 27 27 28 28 29 30 31 32 33 33 34 35 37 38 38 39 40 41 42 43 44 45 46 48 49
31 31 31 31 31 31 30 30 30 30 30 30 29 29 29 30 30 30 30 30 31 31 31 32 33 34 35 36 36 37 39 40 40 41 42 43 44 45 46 46 47 49 51 53
33 34 34 34 34 33 33 33 33 33 33 33 32 32 32 32 33 33 33 34 34 34 34 35 36 37 38 39 39 41 42 43 43 44 45 46 47 47 48 49 50 51 53 55
36 36 36 36 36 36 36 36 35 35 35 35 35 35 35 35 36 36 36 37 37 37 38 39 39 40 41 42 43 44 44 45 46 46 48 48 49 50 50 51 53 54 56 57
38 38 38 38 37 37 38 38 38 38 37 37 37 37 38 38 38 39 39 39 40 41 41 42 43 44 44 45 45 46 47 47 48 49 50 50 51 52 53 54 56 57 59 60
40 39 39 39 40 39 39 39 39 39 39 39 40 40 41 41 41 41 42 42 43 43 44 44 45 46 46 47 47 48 48 49 50 51 52 52 53 54 56 57 59 60 62 63
40 40 40 41 41 41 41 40 40 40 41 41 41 41 42 42 42 43 43 44 44 45 45 46 47 47 48 48 49 50 50 51 52 52 53 54 56 57 58 60 62 63 64 65
41 41 42 42 42 42 42 41 42 42 42 42 42 42 42 43 43 44 44 45 45 45 46 47 48 49 49 50 50 51 52 53 53 54 55 57 58 59 61 63 64 65 66 67
42 42 42 43 43 43 43 43 43 43 43 43 43 44 44 44 45 45 46 46 47 48 49 49 50 50 50 51 52 52 53 54 55 57 58 59 61 62 64 65 66 67 67 68
42 43 43 43 43 43 44 44 44 44 44 44 45 45 46 46 46 47 47 47 48 49 49 50 50 51 51 52 53 54 55 56 58 59 61 62 63 64 65 66 67 68 68 69
42 43 43 43 43 44 44 45 45 45 45 45 46 46 46 46 46 47 47 47 48 49 49 50 51 52 53 54 55 56 57 59 60 61 63 64 65 66 67 68 68 69 69 69
42 42 42 43 43 43 43 44 44 45 45 45 45 45 46 46 46 47 47 48 49 50 50 51 52 53 55 56 57 58 59 60 62 63 64 66 67 67 68 69 69 69 69 69
42 42 42 42 43 43 43 43 44 44 45 46 46 46 47 47 48 48 49 50 50 51 52 53 54 55 56 57 58 59 61 62 63 64 65 66 67 68 69 69 69 68 68 68
43 43 43 43 44 44 44 44 45 45 46 46 47 47 48 48 49 50 50 51 52 52 53 54 55 57 58 59 60 61 62 63 64 65 66 67 68 68 69 68 68 68 67 67
44 44 44 45 45 46 46 46 47 47 47 47 47 48 48 49 50 51 51 52 53 54 55 56 57 58 59 60 61 62 63 64 65 66 67 68 68 68 68 67 67 66 65 64
Wind_Direction
206 205 205 207 208 209 212 212 210 206 209 212 214 211 210 208 206 205 201 202 203 203 205 209 214 220 226 235 244 255 268 280 290 298 304 309 313 316 319 322 323 325 327 331
203 203 206 209 212 213 214 212 211 208 205 211 215 214 211 210 210 207 206 207 207 208 211 216 220 227 233 243 253 263 272 279 288 294 299 304 307 311 314 316 317 317 319 322
208 211 212 215 218 219 218 218 218 214 210 214 214 216 213 211 210 211 212 212 212 214 216 220 226 233 240 250 259 267 274 280 286 292 297 300 303 306 309 311 311 311 312 314
214 216 217 214 218 219 220 221 222 219 217 217 216 216 214 212 212 213 215 216 218 219 223 227 232 239 248 256 264 271 277 282 286 291 296 298 300 302 305 306 307 307 308 309
219 220 219 217 218 219 220 220 224 225 221 217 216 215 214 214 215 217 218 221 223 225 229 234 240 246 253 260 267 273 278 283 287 291 294 296 298 300 302 303 304 305 306 307
222 222 218 215 219 221 221 220 225 224 220 218 217 216 215 217 218 221 223 224 227 230 234 240 246 252 257 263 269 274 280 284 288 291 294 295 297 298 300 301 302 303 304 305
225 224 216 217 219 222 224 220 225 226 222 219 217 216 218 220 221 224 226 228 231 235 240 246 252 258 262 267 272 277 281 285 288 292 293 295 296 297 298 300 300 302 303 303
229 228 221 224 226 227 225 223 224 224 223 220 218 219 221 223 225 227 230 233 237 242 247 252 257 261 266 271 275 279 282 285 289 292 293 294 295 297 298 299 300 301 301 302
234 233 228 228 228 227 226 226 226 226 225 224 223 225 227 229 231 233 236 239 243 247 252 257 260 264 268 273 277 280 283 285 288 291 292 293 294 296 297 298 299 300 300 301
235 234 233 233 230 229 229 229 228 228 228 228 228 229 232 234 236 239 241 244 247 252 256 259 263 268 272 275 279 282 284 286 288 290 291 293 294 295 297 298 299 299 299 300
235 233 232 232 232 230 231 232 231 231 231 231 231 233 237 239 241 243 245 248 252 256 259 263 267 271 274 277 280 283 285 287 289 290 291 293 294 295 296 297 298 298 299 299
236 233 232 232 232 232 233 233 234 234 234 235 236 238 241 243 246 248 250 253 256 259 262 266 270 273 276 278 281 284 286 287 289 290 291 293 294 295 296 296 297 298 298 299
238 235 234 233 234 235 236 236 237 237 238 239 240 242 245 247 249 252 254 256 258 262 265 269 272 275 276 279 281 284 286 287 288 290 291 293 294 294 295 296 297 297 298 299
240 239 238 236 237 238 239 240 240 241 242 243 244 246 248 250 253 255 257 259 262 265 268 271 273 275 277 279 282 284 286 287 289 290 291 293 293 294 295 295 296 297 299 300
242 242 241 240 241 241 242 243 244 244 246 247 248 250 252 253 255 258 260 262 265 267 269 271 274 276 278 280 283 285 286 288 288 289 291 292 293 294 294 295 296 297 299 300
242 243 243 243 244 244 245 246 247 248 249 250 251 253 254 256 259 261 263 265 266 268 271 273 275 277 279 281 283 285 286 287 288 289 291 292 293 293 294 295 297 298 299 300
244 244 245 245 245 246 247 248 249 250 251 253 254 256 258 260 261 263 265 267 269 270 273 275 277 279 280 282 283 285 286 287 288 289 290 292 293 294 295 296 297 298 299 300
244 245 246 246 247 247 248 249 251 252 254 255 256 258 260 261 262 264 266 268 270 272 274 276 277 279 280 282 284 285 286 287 288 290 291 292 293 294 295 297 298 299 300 300
244 245 246 247 248 249 250 251 252 253 254 256 257 258 260 262 263 265 267 269 271 273 274 276 277 279 281 282 283 285 286 287 289 290 291 292 293 294 295 297 298 299 300 301
246 246 247 248 249 250 251 252 253 254 255 257 258 259 260 262 264 266 268 270 272 273 275 277 278 280 281 283 284 285 287 288 289 290 291 292 293 294 296 297 298 299 300 301
246 247 248 249 250 251 252 253 254 255 256 257 259 260 261 263 265 267 269 271 273 274 275 277 279 280 282 283 285 286 287 288 289 290 291 292 293 295 296 297 299 299 300 301
245 247 248 249 250 251 253 254 255 256 257 259 260 262 263 265 266 268 270 271 273 274 276 277 279 280 282 283 285 287 288 289 290 291 292 293 294 296 297 298 299 299 300 301
245 246 248 249 250 252 253 254 256 258 259 260 262 263 265 266 267 269 271 272 274 275 277 278 280 281 283 284 286 287 288 289 290 292 293 294 295 297 297 298 299 299 300 301
246 247 248 249 251 252 254 255 257 258 259 261 262 264 265 267 268 270 271 273 275 276 278 279 281 282 284 285 287 288 289 290 291 292 294 295 296 297 298 298 299 300 300 301
247 247 248 249 251 252 254 255 257 258 260 262 263 264 266 268 269 271 272 274 275 277 279 280 282 284 285 287 288 289 290 291 293 294 295 296 297 298 298 299 300 300 301 301
248 249 249 250 251 252 254 256 258 260 261 262 264 266 267 269 271 272 274 276 277 279 281 282 283 285 286 288 289 290 292 293 294 295 296 297 298 298 299 300 301 301 301 302
249 249 250 250 252 254 255 256 258 260 262 263 265 267 268 270 272 274 276 277 279 280 282 283 285 286 288 289 291 292 293 294 295 296 297 298 298 299 300 300 301 301 302 302